Wind_Speed
16 18 19 19 19 20 22 21 22 21 23 23 26 28 28 29 31 31 31 31 33 33 31 30 29 28 28 28 29 29 30 29 23 23 26 28 29 30 30 32 31 28 29
18 18 20 21 21 21 25 25 23 23 25 25 27 28 27 29 32 33 35 34 33 31 31 30 30 30 28 27 29 31 32 33 29 22 26 28 29 30 29 28 29 31 29
22 22 23 22 22 22 25 25 23 24 26 26 28 29 29 32 35 37 38 34 30 26 25 25 25 25 25 25 26 27 28 31 32 28 25 28 29 29 28 26 25 29 33
19 21 22 22 21 23 27 27 24 25 27 28 30 32 32 34 36 37 33 30 30 28 27 28 28 28 28 27 27 27 28 29 31 32 28 28 30 30 28 26 27 27 31
21 21 22 21 22 24 27 27 24 26 27 29 31 33 35 35 35 34 31 31 33 32 32 31 30 29 28 27 27 27 27 27 29 32 32 28 28 30 32 29 26 28 29
22 22 21 22 23 26 27 26 25 28 30 31 32 34 36 36 34 33 33 36 35 33 32 31 29 28 26 25 25 25 26 26 27 29 31 33 30 29 31 32 30 29 31
20 19 20 22 24 27 27 25 26 29 31 33 36 36 36 36 33 33 36 38 33 30 30 30 29 29 29 29 28 27 26 27 28 30 32 33 35 33 29 31 34 33 32
19 19 21 24 27 28 26 25 28 30 32 34 37 36 36 36 35 34 36 37 33 32 30 29 29 29 30 29 28 26 24 23 22 23 25 27 31 35 36 35 36 36 36
21 23 24 26 28 25 25 27 30 32 34 36 37 37 37 37 36 36 35 34 30 30 30 30 29 31 29 28 28 26 25 24 24 23 24 24 25 26 29 31 32 32 35
25 25 25 26 25 25 26 29 31 35 36 36 37 38 37 36 35 35 33 31 30 30 29 28 30 30 30 29 28 28 28 29 29 28 27 27 27 28 29 31 32 32 31
24 24 25 26 26 26 28 30 33 36 36 36 36 37 37 35 35 35 31 31 31 32 30 30 30 30 30 29 28 27 28 30 32 32 32 32 32 32 33 33 34 35 36
23 24 25 26 28 28 30 33 34 35 35 35 35 36 36 34 32 34 33 31 31 31 31 31 31 30 30 30 29 28 28 28 29 29 31 33 34 34 36 37 38 38 38
25 29 31 29 30 31 32 34 34 34 35 35 36 37 37 34 31 30 30 31 31 31 32 32 33 33 32 31 30 29 28 28 31 33 33 33 34 36 37 39 40 40 42
29 31 31 31 33 33 33 33 33 33 34 35 36 37 36 33 31 30 30 30 30 30 31 32 33 33 33 31 31 32 30 30 31 31 33 34 36 37 37 38 39 41 42
31 33 34 35 35 33 32 32 32 32 33 35 37 37 34 33 32 31 31 31 30 31 33 33 34 34 33 33 32 31 33 33 32 33 32 32 34 35 37 38 39 39 40
35 37 38 33 32 33 32 31 32 33 33 37 36 34 33 32 33 32 31 33 32 34 34 35 35 35 34 33 32 31 34 35 34 32 29 31 34 36 37 39 41 42 43
30 32 31 30 31 31 31 31 32 32 35 35 34 32 31 33 32 34 35 35 37 37 36 35 35 34 32 32 33 34 33 33 31 28 29 33 34 34 35 36 38 38 39
38 30 32 30 28 30 31 31 32 34 35 32 31 31 31 33 34 34 33 34 36 35 35 34 33 31 31 31 32 34 33 32 30 29 31 34 35 35 36 37 37 38 37
30 28 29 30 29 29 31 32 34 34 33 32 31 29 30 32 34 35 34 33 32 34 32 30 31 31 32 33 34 33 32 30 30 31 32 34 35 36 37 36 35 35 34
28 29 29 28 27 29 31 34 36 33 31 32 31 32 32 32 33 33 32 32 32 29 28 30 31 31 32 34 34 33 32 30 32 32 34 35 36 37 36 34 34 34 34
25 29 28 27 27 30 33 35 33 31 29 31 33 34 33 32 32 33 34 33 30 29 29 30 30 33 34 34 33 32 32 32 33 34 35 37 37 37 36 34 33 33 33
23 27 26 25 29 32 34 32 31 29 29 30 33 33 32 32 34 35 33 31 31 31 31 31 32 33 33 33 32 32 33 33 34 35 36 37 37 37 36 34 33 33 32
22 24 25 27 30 31 30 29 28 27 28 31 33 33 33 33 35 34 30 29 30 32 32 33 34 34 33 33 32 33 32 33 33 34 35 36 37 36 36 35 34 33 33
25 25 27 30 30 32 32 29 29 30 31 31 30 31 33 37 37 31 30 29 31 30 31 32 33 32 31 31 32 32 32 32 33 34 35 35 36 36 36 36 35 34 34
24 26 29 31 30 29 28 28 29 32 32 31 33 35 37 38 33 30 29 29 30 31 31 33 32 31 29 31 33 33 33 34 34 35 35 36 36 36 36 36 36 35 35
25 29 29 28 29 27 27 28 30 32 33 33 35 37 37 34 30 29 29 30 30 30 31 31 31 31 31 32 32 33 33 34 34 35 35 36 36 36 37 37 37 36 36
Wind_Direction
330 330 332 337 337 337 337 332 329 326 321 320 322 325 323 323 323 323 320 316 315 311 309 304 299 294 288 285 284 285 288 289 286 278 276 277 273 268 267 281 282 277 271
322 325 330 329 326 329 330 324 323 322 317 317 320 319 320 323 324 322 318 317 313 311 308 303 299 297 293 288 282 279 278 281 284 280 277 276 274 273 272 266 273 284 274
307 306 312 316 317 317 324 322 318 316 317 321 319 319 322 324 323 322 322 320 317 318 313 305 302 299 295 292 288 286 285 283 284 281 273 274 276 275 276 273 268 268 280
311 308 312 313 309 311 320 320 315 318 321 321 323 321 318 317 318 319 322 319 316 315 313 308 305 301 296 291 286 282 279 278 280 281 276 269 268 271 271 269 266 263 261
318 313 313 312 311 312 315 314 315 315 316 320 321 319 315 314 315 319 320 317 315 315 312 309 306 301 296 293 289 286 282 279 277 278 280 274 269 269 270 266 263 264 261
309 307 310 313 312 313 314 311 312 316 316 318 315 314 315 316 317 316 315 314 311 311 311 310 308 306 302 297 294 290 288 286 283 279 278 281 277 268 269 270 265 259 259
321 327 318 310 310 312 309 309 313 313 314 315 314 315 316 315 314 314 315 315 313 310 308 305 304 303 301 299 295 290 287 283 280 278 278 278 281 279 271 270 268 263 258
314 319 318 315 314 312 307 311 312 313 313 312 312 314 315 316 313 314 315 314 310 307 304 302 302 301 302 301 299 296 295 292 289 287 283 280 279 280 282 275 268 268 266
313 318 317 315 310 306 309 310 309 311 311 312 313 315 318 316 312 313 312 310 307 303 300 301 304 304 303 302 303 295 294 293 293 294 294 293 290 285 283 283 280 271 266
307 310 311 311 307 307 307 307 309 308 311 314 316 317 316 314 311 309 310 309 306 302 297 300 304 305 306 306 303 298 291 291 292 293 293 290 290 290 288 285 285 284 278
304 305 306 306 305 306 306 306 306 309 312 314 316 316 315 312 310 311 312 309 307 305 300 300 303 304 307 305 302 301 298 295 292 291 291 291 291 290 291 290 286 282 279
302 305 304 307 306 303 304 304 306 309 312 314 313 315 315 310 308 308 311 311 309 306 302 301 304 305 306 306 305 305 301 297 294 291 289 289 290 290 291 292 291 288 283
306 307 303 306 303 300 303 304 309 313 314 315 315 313 310 308 309 310 310 310 309 305 303 303 304 303 302 304 306 305 303 300 297 296 293 292 292 293 293 292 291 290 288
304 304 306 303 299 301 303 307 311 312 315 314 311 311 310 310 311 313 313 310 307 304 301 298 298 299 300 302 302 301 298 297 296 296 296 297 296 295 294 293 292 291 289
303 304 302 302 299 302 306 309 311 314 313 313 313 312 311 312 314 315 315 314 313 311 308 306 305 305 305 305 304 303 306 304 302 301 302 301 300 300 299 298 295 292 288
304 301 301 301 303 305 308 309 309 312 315 312 312 312 311 311 313 315 315 313 312 310 310 309 307 305 306 307 306 306 306 304 304 302 303 303 304 303 300 298 295 292 287
312 310 306 306 308 309 309 308 308 312 314 312 312 312 311 309 309 311 312 311 310 309 308 306 304 303 306 307 306 305 304 304 300 298 302 307 308 306 306 304 301 298 296
307 296 306 307 307 306 305 308 312 313 313 313 313 312 310 306 308 309 309 309 308 308 309 307 305 306 305 306 306 306 307 304 300 302 306 310 311 313 313 309 304 300 295
295 299 304 304 306 307 308 311 312 311 312 313 313 313 310 309 308 310 312 312 311 310 307 304 306 309 310 311 311 309 308 304 303 304 308 309 312 313 313 310 307 303 300
300 302 303 303 306 308 311 311 310 312 313 314 316 314 315 314 312 312 312 312 313 310 310 310 310 312 312 314 313 311 310 308 307 309 309 309 311 311 312 309 307 304 303
292 300 302 306 307 309 310 308 311 314 315 315 317 317 315 314 314 314 314 315 313 311 312 312 314 315 318 315 314 314 312 310 311 311 312 312 312 312 311 307 307 306 307
301 302 302 306 308 311 310 309 308 312 313 315 317 314 313 316 317 317 316 314 312 313 314 314 316 317 317 317 318 316 315 316 314 314 314 314 313 312 310 306 305 306 306
301 300 303 304 307 306 304 307 310 316 318 314 314 314 314 314 316 315 312 311 311 312 314 316 317 318 319 319 319 317 318 317 317 316 316 314 312 312 310 306 304 305 306
303 304 305 308 308 309 312 313 312 317 317 315 313 313 315 314 314 311 308 308 309 312 314 315 316 318 320 319 318 319 318 319 319 318 317 317 316 315 313 309 304 303 304
301 305 307 306 309 310 307 307 313 315 317 316 314 315 316 313 310 306 307 308 311 313 314 316 317 318 321 318 317 317 318 319 320 321 320 320 318 316 315 314 309 305 304
305 305 305 304 305 309 308 311 314 315 315 314 316 316 315 311 308 306 307 310 311 312 314 316 317 318 320 319 319 319 319 320 321 321 322 321 321 319 318 317 314 308 303
Height
5892 5890 5888 5885 5884 5882 5880 5879 5876 5875 5872 5869 5866 5863 5860 5858 5854 5850 5846 5842 5839 5836 5833 5829 5827 5824 5822 5820 5819 5817 5816 5814 5816 5815 5813 5811 5811 5812 5813 5813 5812 5814 5810
5889 5887 5884 5883 5881 5879 5877 5874 5871 5869 5866 5864 5861 5859 5855 5850 5846 5842 5838 5834 5831 5828 5825 5821 5819 5816 5814 5813 5811 5809 5808 5806 5806 5807 5805 5803 5802 5801 5804 5807 5808 5808 5804
5884 5883 5881 5880 5877 5875 5872 5869 5866 5863 5861 5859 5855 5851 5846 5842 5838 5834 5829 5826 5822 5820 5818 5814 5812 5809 5807 5805 5803 5801 5799 5797 5795 5796 5797 5796 5794 5794 5794 5795 5796 5798 5797
5879 5878 5877 5876 5873 5870 5868 5864 5861 5858 5855 5852 5848 5844 5840 5836 5832 5828 5823 5819 5816 5814 5811 5808 5805 5802 5799 5797 5795 5793 5791 5789 5787 5786 5787 5787 5787 5786 5786 5787 5787 5788 5788
5875 5874 5872 5870 5868 5866 5863 5859 5856 5853 5849 5846 5842 5838 5834 5829 5825 5820 5816 5812 5808 5806 5803 5799 5797 5794 5791 5789 5786 5784 5783 5781 5779 5777 5776 5777 5778 5778 5777 5778 5779 5779 5779
5872 5870 5868 5866 5863 5861 5857 5854 5851 5848 5844 5840 5836 5831 5826 5821 5816 5812 5809 5805 5801 5797 5795 5791 5788 5785 5783 5781 5779 5777 5775 5773 5771 5769 5768 5766 5767 5769 5768 5767 5770 5772 5771
5868 5865 5862 5860 5858 5854 5851 5848 5845 5841 5837 5833 5829 5824 5820 5815 5810 5806 5803 5798 5794 5790 5787 5784 5782 5779 5776 5773 5771 5769 5767 5765 5763 5761 5759 5757 5755 5755 5758 5758 5757 5760 5762
5863 5860 5857 5855 5852 5849 5846 5843 5839 5835 5831 5827 5822 5817 5813 5808 5804 5799 5795 5791 5787 5784 5781 5778 5775 5772 5768 5765 5762 5759 5757 5755 5754 5752 5750 5749 5747 5744 5742 5745 5747 5747 5748
5857 5855 5852 5849 5846 5842 5840 5836 5833 5829 5824 5819 5815 5810 5805 5801 5797 5792 5788 5784 5781 5778 5774 5770 5767 5764 5761 5757 5754 5751 5749 5746 5744 5743 5741 5739 5737 5736 5734 5732 5732 5735 5735
5851 5849 5846 5842 5838 5835 5833 5829 5826 5822 5816 5811 5806 5802 5799 5794 5789 5786 5781 5776 5773 5770 5767 5764 5760 5757 5753 5749 5745 5742 5740 5738 5735 5733 5732 5730 5728 5727 5725 5723 5721 5721 5722
5845 5842 5839 5835 5831 5829 5826 5822 5818 5814 5809 5804 5800 5796 5791 5787 5781 5776 5773 5769 5765 5761 5759 5756 5753 5749 5746 5741 5737 5734 5732 5729 5726 5724 5721 5719 5716 5714 5713 5712 5710 5710 5709
5838 5836 5832 5828 5825 5821 5817 5814 5810 5806 5802 5798 5794 5789 5783 5779 5775 5770 5764 5760 5757 5753 5750 5747 5744 5741 5737 5733 5729 5725 5722 5720 5718 5715 5712 5709 5706 5703 5701 5699 5696 5695 5695
5831 5829 5826 5822 5818 5814 5810 5806 5802 5798 5794 5790 5785 5781 5777 5773 5768 5763 5757 5752 5749 5745 5741 5738 5735 5732 5729 5725 5721 5718 5715 5712 5708 5704 5702 5699 5696 5693 5690 5687 5683 5681 5679
5824 5821 5818 5815 5810 5806 5802 5798 5793 5790 5786 5783 5777 5773 5769 5764 5760 5755 5750 5746 5742 5738 5734 5731 5728 5724 5720 5716 5712 5709 5707 5703 5699 5695 5691 5688 5684 5681 5678 5675 5672 5669 5666
5816 5813 5811 5807 5803 5798 5794 5790 5786 5783 5779 5774 5769 5764 5759 5754 5751 5746 5742 5738 5734 5730 5726 5722 5718 5714 5711 5706 5703 5700 5695 5691 5687 5683 5680 5676 5673 5669 5665 5662 5659 5656 5654
5808 5805 5801 5797 5794 5791 5787 5783 5779 5774 5769 5764 5760 5756 5751 5746 5743 5739 5735 5730 5726 5722 5718 5714 5709 5705 5701 5697 5694 5690 5686 5681 5677 5672 5669 5666 5663 5659 5654 5649 5645 5642 5639
5800 5797 5793 5789 5785 5783 5779 5776 5772 5767 5762 5756 5751 5747 5743 5739 5736 5731 5726 5722 5717 5713 5709 5705 5701 5697 5693 5688 5685 5680 5677 5672 5667 5663 5660 5656 5652 5647 5642 5637 5633 5629 5625
5792 5787 5785 5783 5779 5775 5772 5768 5763 5759 5754 5749 5744 5740 5736 5732 5728 5724 5720 5715 5709 5705 5700 5696 5692 5688 5684 5680 5676 5671 5666 5661 5657 5653 5649 5645 5640 5635 5630 5626 5621 5616 5612
5783 5779 5776 5773 5770 5766 5763 5760 5755 5750 5745 5740 5737 5734 5729 5725 5720 5715 5711 5707 5702 5697 5693 5688 5684 5680 5675 5671 5666 5661 5656 5652 5648 5643 5639 5634 5629 5624 5619 5614 5609 5605 5600
5775 5772 5769 5766 5763 5758 5754 5751 5747 5742 5737 5732 5728 5724 5720 5715 5710 5706 5703 5699 5694 5689 5685 5680 5675 5671 5667 5662 5656 5651 5646 5642 5637 5633 5628 5623 5618 5613 5608 5603 5599 5594 5589
5766 5764 5761 5758 5755 5751 5747 5743 5739 5733 5729 5724 5720 5716 5712 5707 5703 5698 5693 5688 5685 5681 5677 5673 5668 5662 5657 5652 5647 5642 5636 5632 5628 5622 5617 5612 5607 5602 5597 5592 5588 5583 5579
5757 5755 5754 5750 5746 5743 5739 5735 5730 5726 5722 5717 5711 5707 5703 5699 5694 5690 5685 5680 5676 5672 5668 5663 5659 5654 5649 5643 5638 5632 5627 5622 5617 5612 5607 5601 5596 5591 5586 5581 5577 5572 5568
5750 5748 5746 5743 5740 5737 5733 5728 5723 5718 5714 5708 5704 5700 5695 5691 5687 5682 5677 5673 5669 5664 5659 5655 5650 5644 5639 5634 5629 5623 5618 5613 5608 5603 5597 5592 5586 5581 5575 5570 5566 5562 5557
5743 5741 5738 5735 5732 5727 5722 5718 5714 5711 5707 5703 5698 5694 5689 5683 5678 5673 5670 5666 5661 5656 5652 5647 5642 5637 5631 5625 5620 5615 5610 5605 5599 5594 5588 5582 5576 5570 5565 5559 5555 5550 5546
5736 5733 5730 5727 5724 5720 5716 5712 5708 5703 5699 5694 5690 5686 5680 5674 5670 5666 5662 5658 5653 5648 5643 5639 5634 5628 5624 5617 5612 5606 5601 5595 5590 5584 5578 5572 5566 5561 5555 5549 5543 5539 5534
5729 5727 5724 5721 5717 5713 5709 5705 5701 5697 5692 5687 5682 5677 5672 5667 5663 5658 5654 5650 5645 5640 5636 5631 5625 5620 5615 5609 5603 5598 5591 5586 5580 5575 5569 5563 5557 5551 5545 5538 5532 5527 5522